This is the latest recevied weather packets stored in our database for station/object KA0EGE. If no packets are shown the sender has not sent any weather packets the latest 10 day(s).
| Time | Temp. | Humidity | Pressure | Rain* | Wind** | Luminosity | Snow |
|---|---|---|---|---|---|---|---|
| 1777947235 | 13.89° C | 81% | 1018.5 hPa | 0 mm | - | 0 W/m² | - |
| 1777946932 | 14.44° C | 80% | 1018.6 hPa | 0 mm | - | 0 W/m² | - |
| 1777946627 | 14.44° C | 80% | 1018.5 hPa | 0 mm | - | 0 W/m² | - |
| 1777946324 | 15° C | 79% | 1018.6 hPa | 0 mm | - | 0 W/m² | - |
| 1777946021 | 15° C | 78% | 1018.5 hPa | 0 mm | - | 0 W/m² | - |
| 1777945719 | 15° C | 78% | 1018.5 hPa | 0 mm | - | 0 W/m² | - |
| 1777945416 | 15° C | 77% | 1018.6 hPa | 0 mm | - | 0 W/m² | - |
| 1777945112 | 15° C | 76% | 1018.4 hPa | 0 mm | - | 0 W/m² | - |
| 1777944809 | 15.56° C | 76% | 1018.4 hPa | 0 mm | - | 0 W/m² | - |
| 1777944508 | 15.56° C | 75% | 1018.3 hPa | 0 mm | - | 0 W/m² | - |
| 1777944205 | 15.56° C | 74% | 1018.5 hPa | 0 mm | - | 0 W/m² | - |
| 1777943901 | 16.11° C | 73% | 1018.4 hPa | 0 mm | - | 0 W/m² | - |
| 1777943598 | 16.11° C | 72% | 1018.3 hPa | 0 mm | - | 0 W/m² | - |
| 1777943294 | 16.67° C | 71% | 1018.4 hPa | 0 mm | - | 0 W/m² | - |
| 1777942990 | 17.22° C | 68% | 1018.3 hPa | 0 mm | - | 0 W/m² | - |
| 1777942686 | 18.33° C | 67% | 1018.2 hPa | 0 mm | - | 0 W/m² | - |
| 1777942384 | 18.89° C | 63% | 1018.4 hPa | 0 mm | - | 0 W/m² | - |
| 1777942081 | 19.44° C | 59% | 1018.4 hPa | 0 mm | - | 0 W/m² | - |
| 1777941777 | 19.44° C | 59% | 1018.4 hPa | 0 mm | - | 0 W/m² | - |
| 1777941474 | 20° C | 57% | 1018.5 hPa | 0 mm | - | 0 W/m² | - |
| 1777941172 | 20° C | 56% | 1018.2 hPa | 0 mm | - | 1 W/m² | - |
| 1777940868 | 20.56° C | 55% | 1018.3 hPa | 0 mm | - | 3 W/m² | - |
| 1777940565 | 20.56° C | 54% | 1018.2 hPa | 0 mm | - | 5 W/m² | - |
| 1777940263 | 21.11° C | 53% | 1018.2 hPa | 0 mm | - | 8 W/m² | - |
| 1777939960 | 21.11° C | 52% | 1018.1 hPa | 0 mm | - | 11 W/m² | - |
* Rain latest hour (hover to see other rain measurements)
** Current wind speed in m/s (hover to see current wind gust speed)